Voltar ao catálogo

IRIDIUM 117

AtivoComunicaçõesPO
NORAD 42808·PAYLOAD·🇺🇸 United States

Lançado Jun 25, 2017 de Vandenberg Space Force Base

Loading…

Próximas Passagens (próximas 24 horas)

TLE

AtualizadoSource: CelesTrak SupGP

Época: Sep 14, 2026, 20:19 UTC

1 42808C 17039F   26257.84687500 -.00001381  00000+0 -49386-3 0  2576
2 42808  86.3975 316.1348 0002346  94.5699 272.2103 14.34218404    14

Acompanhe IRIDIUM 117 em tempo real com AllMySat

Download on the App Store